Location: Newark
(43.0000°N, 1.6781°W)
Time: 08:30:58
(UTC+00:00)

Courier 1B Rocket - Pass Details

Date: 22 April 2021
Orbit: 920 x 1202 km, 28.2° (Epoch: 09 May)

Event Time Altitude Azimuth Distance (km) Brightness Sun altitude
Rises 22:27:33 0° 252° (WSW) 3,782 8.2 -30.2°
Reaches altitude 10° 22:31:04 10° 235° (SW) 2,882 7.4 -30.5°
Enters shadow 22:31:04 10° 235° (SW) 2,882 7.4 -30.5°
